Starlink 31000

operational
NORAD ID: 58488 Int'l Des: 2023-186 Owner: SPXS Country: US Constellation: starlink
LEOCIRCULAR

关于 Starlink 31000

正在加载描述...

实时位置

正在加载3D地球...

即将过境

高度历史

Altitude vs Time

uPlot chart will show altitude changes over time

两行轨道根数

1 58488U 23186R 25353.72554076 .00000667 00000-0 64455-4 0 9994
2 58488 43.0023 141.8802 0001200 271.3374 88.7331 15.02538814113812
Epoch: Dec 19, 2025 • Age: 19 hours

当前状态

高度 568.7 km
速度 7.58 km/s
星下点 -35.61°S, 97.87°E
发射日期 Dec 3, 2023
运行时间 2 years
类型 internet

技术详情

分类 Payload
质量 730.00 kg
干质量 700.00 kg
总质量 730.00 kg
长度 0.30 m
直径 4.10 m
跨度 29.00 m
形状 Box + pan
制造商 SPXS
平台类型 Starlink V2M
阶段状态 In Orbit
所有者/国家 SPXS/US

大型星座

Loading constellations...